When you browse on this site, cookies collect data to enhance your experience and personalize the content and advertising you see.
Visit our Privacy Policy to learn more. By continuing to use the site, you agree to this use of cookies and data.
  • In Sweden
  • List of Countries
  • For 7 days
  • Water Temperature
  • Satellite Maps
  • Weather Map
  • Weather Widgets
  • user-avatar
    Login

    Hourly Weather Clinton

    Today, 24 May, Friday

    Time Temperature Precipitation Wind Pressure Humidity
    00:00 +16°C° 0 mm 3 mps 747 mmHg 86%
    01:00 +16°C° 0.5 mm 3 mps 747 mmHg 88%
    02:00 +16°C° 0.5 mm 3 mps 747 mmHg 89%
    03:00 +14°C° 0.5 mm 3 mps 747 mmHg 91%
    04:00 +15°C° 1.1 mm 4 mps 747 mmHg 92%
    05:00 +15°C° 1.1 mm 4 mps 747 mmHg 92%
    06:00 +15°C° 1.1 mm 4 mps 747 mmHg 92%
    07:00 +16°C° 0 mm 5 mps 747 mmHg 90%
    08:00 +17°C° 0 mm 5 mps 746 mmHg 87%
    09:00 +19°C° 0 mm 5 mps 746 mmHg 84%
    10:00 +21°C° 0 mm 5 mps 746 mmHg 82%
    11:00 +22°C° 0 mm 4 mps 746 mmHg 81%
    12:00 +25°C° 0 mm 4 mps 745 mmHg 79%
    13:00 +26°C° 0.2 mm 4 mps 745 mmHg 79%
    14:00 +27°C° 0.2 mm 4 mps 744 mmHg 79%
    15:00 +28°C° 0.2 mm 4 mps 744 mmHg 79%
    16:00 +27°C° 2 mm 4 mps 743 mmHg 81%
    17:00 +27°C° 2 mm 4 mps 743 mmHg 83%
    18:00 +27°C° 2 mm 5 mps 742 mmHg 85%
    19:00 +26°C° 6.3 mm 4 mps 742 mmHg 87%
    20:00 +25°C° 6.3 mm 4 mps 742 mmHg 90%
    21:00 +23°C° 6.3 mm 4 mps 742 mmHg 92%
    22:00 +23°C° 3.1 mm 4 mps 742 mmHg 93%
    23:00 +23°C° 3.1 mm 4 mps 742 mmHg 93%

    Tomorrow, 25 May, Saturday

    Time Temperature Precipitation Wind Pressure Humidity
    00:00 +22°C° 3.1 mm 3 mps 742 mmHg 94%
    01:00 +22°C° 1.4 mm 4 mps 742 mmHg 93%
    02:00 +22°C° 1.4 mm 4 mps 742 mmHg 93%
    03:00 +22°C° 1.4 mm 5 mps 741 mmHg 93%
    04:00 +22°C° 0.4 mm 5 mps 741 mmHg 92%
    05:00 +22°C° 0.4 mm 5 mps 741 mmHg 92%
    06:00 +22°C° 0.4 mm 4 mps 741 mmHg 92%
    07:00 +22°C° 0.8 mm 5 mps 741 mmHg 91%
    08:00 +23°C° 0.8 mm 5 mps 742 mmHg 90%
    09:00 +23°C° 0.8 mm 5 mps 742 mmHg 90%
    10:00 +25°C° 0 mm 5 mps 742 mmHg 87%
    11:00 +26°C° 0 mm 5 mps 742 mmHg 85%
    12:00 +26°C° 0 mm 6 mps 742 mmHg 83%
    13:00 +27°C° 0.1 mm 5 mps 742 mmHg 80%
    14:00 +28°C° 0.1 mm 5 mps 742 mmHg 77%
    15:00 +29°C° 0.1 mm 5 mps 742 mmHg 74%
    16:00 +29°C° 0 mm 4 mps 742 mmHg 76%
    17:00 +28°C° 0 mm 3 mps 742 mmHg 78%
    18:00 +28°C° 0 mm 3 mps 742 mmHg 80%
    19:00 +27°C° 0.3 mm 3 mps 742 mmHg 84%
    20:00 +25°C° 0.3 mm 3 mps 743 mmHg 88%
    21:00 +24°C° 0.3 mm 3 mps 743 mmHg 92%
    22:00 +22°C° 0.1 mm 3 mps 743 mmHg 93%
    23:00 +23°C° 0.1 mm 2 mps 743 mmHg 93%

    Day after tomorrow, 26 May, Sunday

    Time Temperature Precipitation Wind Pressure Humidity
    00:00 +21°C° 0.1 mm 2 mps 743 mmHg 94%
    01:00 +20°C° 0.5 mm 2 mps 744 mmHg 93%
    02:00 +19°C° 0.5 mm 3 mps 744 mmHg 92%
    03:00 +18°C° 0.5 mm 3 mps 744 mmHg 91%
    04:00 +17°C° 0.2 mm 3 mps 744 mmHg 90%
    05:00 +17°C° 0.2 mm 3 mps 744 mmHg 88%
    06:00 +17°C° 0.2 mm 4 mps 745 mmHg 87%
    07:00 +17°C° 0.7 mm 4 mps 745 mmHg 88%
    08:00 +17°C° 0.7 mm 3 mps 745 mmHg 88%
    09:00 +17°C° 0.7 mm 3 mps 745 mmHg 89%
    10:00 +18°C° 0.7 mm 3 mps 745 mmHg 88%
    11:00 +18°C° 0.7 mm 3 mps 745 mmHg 87%
    12:00 +19°C° 0.7 mm 3 mps 745 mmHg 86%
    13:00 +20°C° 0 mm 3 mps 745 mmHg 83%
    14:00 +21°C° 0 mm 2 mps 745 mmHg 80%
    15:00 +24°C° 0 mm 2 mps 745 mmHg 77%
    16:00 +23°C° 0 mm 2 mps 745 mmHg 79%
    17:00 +23°C° 0 mm 2 mps 745 mmHg 82%
    18:00 +22°C° 0 mm 1 mps 745 mmHg 84%
    19:00 +20°C° 0 mm 2 mps 745 mmHg 86%
    20:00 +20°C° 0 mm 2 mps 745 mmHg 87%
    21:00 +19°C° 0 mm 3 mps 746 mmHg 89%
    22:00 +18°C° 0 mm 3 mps 746 mmHg 90%
    23:00 +17°C° 0 mm 3 mps 746 mmHg 91%

    27 May, Monday

    Time Temperature Precipitation Wind Pressure Humidity
    00:00 +16°C° 0 mm 3 mps 746 mmHg 93%
    01:00 +14°C° 0 mm 3 mps 745 mmHg 89%
    02:00 +14°C° 0 mm 3 mps 745 mmHg 86%
    03:00 +13°C° 0 mm 3 mps 744 mmHg 82%
    04:00 +13°C° 0 mm 3 mps 744 mmHg 82%
    05:00 +13°C° 0 mm 4 mps 744 mmHg 81%
    06:00 +14°C° 0 mm 4 mps 743 mmHg 80%
    07:00 +14°C° 0.6 mm 4 mps 743 mmHg 83%
    08:00 +15°C° 0.6 mm 4 mps 742 mmHg 86%
    09:00 +17°C° 0.6 mm 4 mps 742 mmHg 89%
    10:00 +18°C° 1.3 mm 4 mps 742 mmHg 90%
    11:00 +20°C° 1.3 mm 4 mps 741 mmHg 90%
    12:00 +21°C° 1.3 mm 3 mps 741 mmHg 91%
    13:00 +23°C° 1.9 mm 4 mps 740 mmHg 85%
    14:00 +25°C° 1.9 mm 5 mps 739 mmHg 78%
    15:00 +27°C° 1.9 mm 6 mps 738 mmHg 72%
    16:00 +26°C° 0.1 mm 6 mps 738 mmHg 76%
    17:00 +26°C° 0.1 mm 5 mps 737 mmHg 79%
    18:00 +26°C° 0.1 mm 5 mps 737 mmHg 83%
    19:00 +25°C° 1 mm 4 mps 737 mmHg 86%
    20:00 +24°C° 1 mm 3 mps 737 mmHg 90%
    21:00 +21°C° 1 mm 2 mps 737 mmHg 93%
    22:00 +21°C° 3.7 mm 2 mps 737 mmHg 94%
    23:00 +21°C° 3.7 mm 2 mps 737 mmHg 95%

    28 May, Tuesday

    Time Temperature Precipitation Wind Pressure Humidity
    00:00 +21°C° 3.7 mm 2 mps 737 mmHg 96%
    01:00 +21°C° 0.7 mm 3 mps 736 mmHg 95%
    02:00 +21°C° 0.7 mm 4 mps 736 mmHg 95%
    03:00 +21°C° 0.7 mm 5 mps 735 mmHg 95%
    04:00 +21°C° 0.2 mm 5 mps 735 mmHg 95%
    05:00 +21°C° 0.2 mm 5 mps 735 mmHg 94%
    06:00 +21°C° 0.2 mm 5 mps 735 mmHg 94%
    07:00 +23°C° 0.1 mm 5 mps 735 mmHg 91%
    08:00 +24°C° 0.1 mm 6 mps 735 mmHg 87%
    09:00 +27°C° 0.1 mm 7 mps 735 mmHg 84%
    10:00 +27°C° 0.1 mm 7 mps 735 mmHg 83%
    11:00 +27°C° 0.1 mm 7 mps 735 mmHg 82%
    12:00 +28°C° 0.1 mm 7 mps 734 mmHg 80%
    13:00 +29°C° 0 mm 7 mps 734 mmHg 77%
    14:00 +30°C° 0 mm 7 mps 734 mmHg 75%
    15:00 +32°C° 0 mm 7 mps 733 mmHg 72%
    16:00 +30°C° 0.9 mm 6 mps 733 mmHg 76%
    17:00 +29°C° 0.9 mm 6 mps 733 mmHg 80%
    18:00 +28°C° 0.9 mm 5 mps 733 mmHg 84%
    19:00 +27°C° 3.3 mm 4 mps 733 mmHg 86%
    20:00 +25°C° 3.3 mm 3 mps 733 mmHg 88%
    21:00 +24°C° 3.3 mm 3 mps 733 mmHg 91%
    22:00 +22°C° 6 mm 3 mps 733 mmHg 92%
    23:00 +22°C° 6 mm 4 mps 732 mmHg 93%

    29 May, Wednesday

    Time Temperature Precipitation Wind Pressure Humidity
    00:00 +22°C° 6 mm 4 mps 732 mmHg 94%
    01:00 +22°C° 0.3 mm 4 mps 731 mmHg 93%
    02:00 +22°C° 0.3 mm 4 mps 731 mmHg 93%
    03:00 +21°C° 0.3 mm 4 mps 730 mmHg 93%
    04:00 +21°C° 0.3 mm 5 mps 730 mmHg 92%
    05:00 +21°C° 0.3 mm 6 mps 730 mmHg 91%
    06:00 +22°C° 0.3 mm 6 mps 730 mmHg 90%
    07:00 +23°C° 0.2 mm 7 mps 730 mmHg 86%
    08:00 +24°C° 0.2 mm 8 mps 730 mmHg 82%
    09:00 +26°C° 0.2 mm 9 mps 729 mmHg 78%
    10:00 +24°C° 0.2 mm 10 mps 729 mmHg 77%
    11:00 +24°C° 0.2 mm 11 mps 730 mmHg 75%
    12:00 +23°C° 0.2 mm 12 mps 730 mmHg 74%
    13:00 +23°C° 0.6 mm 11 mps 731 mmHg 75%
    14:00 +23°C° 0.6 mm 10 mps 731 mmHg 75%
    15:00 +22°C° 0.6 mm 9 mps 732 mmHg 76%
    16:00 +21°C° 0.2 mm 8 mps 733 mmHg 78%
    17:00 +20°C° 0.2 mm 7 mps 734 mmHg 80%
    18:00 +19°C° 0.2 mm 6 mps 735 mmHg 82%
    19:00 +17°C° 0 mm 5 mps 736 mmHg 83%
    20:00 +17°C° 0 mm 4 mps 736 mmHg 85%
    21:00 +16°C° 0 mm 3 mps 737 mmHg 86%
    22:00 +16°C° 0 mm 3 mps 737 mmHg 86%
    23:00 +16°C° 0 mm 3 mps 738 mmHg 87%
    Show more